ZY 3 2

导读

ZY 3 2即资源三号02星,是中国资源三号01星的后续高分辨率立体测图业务卫星,于2016年5月30日发射。它在01星基础上优化升级,将前后视相机分辨率从3.5米提升至优于2.5米,新增试验性激光测高载荷,影像融合和高程测量精度更出色。与01星组网后,重访周期从5天缩短至3天内,大幅提升我国1:5万立体测图信息获取能力,为测绘、自然资源调查等领域提供支撑。

Basic Information
目录编号:
41556
目录名称:
ZY 3 2
国际标识:
2016-033A
轨道中心:
EARTH
卫星名称:
ZY 3 2
卫星全名:
--
卫星状态:
在轨 (已飞行3667 天)
发射日期:
2016-05-30 UTC
国别 :
中国 (CN)
星等 :
--
Orbit Information
数据来源 国际轨道数据 AOE轨道数据
星历时间 2026-06-14T07:12:34+0800
10小时前
查看轨道信息
2026-06-14T01:00:00+0800
17小时前
查看轨道信息
半长轴 6879.594km 6879.608km
偏心率 0.0011275 0.0011492
轨道倾角 97.384° 97.384°
近地点辐角 302.653° 303.346°
升交点赤经 240.803° 240.548°
平近点角 57.362° 80.463°
近地点 493.7km 493.564km
远地点 509.214km 509.378km
周期 94.646分钟 94.647分钟
每日圈数 15.214533 15.214485
Detailed Information
使用方式:
暂无
2D Orbit Map
3D Orbit Map
Orbit Altitude Analysis Chart
Orbit Inclination Analysis Chart
Orbit Comprehensive Analysis Chart
View Comprehensive Chart